Tracking 30685 objects as of 17-Jun-2025
HD Live streaming from Space Station
objects crossing your sky now

NOAA 16 DEB

Track NOAA 16 DEB now!
10-day predictions


NORAD ID: 41215
Int'l Code: 2000-055DU
Perigee: 734.8 km
Apogee: 771.3 km
Inclination: 98.8 °
Period: 99.7 minutes
Semi major axis: 7124 km
RCS: Unknown
Launch date: September 21, 2000
Source: United States (US)
Launch site: AIR FORCE WESTERN TEST RANGE (AFWTR)

Note: This is SATELLITE DEBRIS
Your satellite tracking list
Your tracking list is empty




NASA's NSSDC Master Catalog

Two Line Element Set (TLE):
1 41215U 00055DU  25167.30104125  .00005283  00000-0  15583-2 0  9992
2 41215  98.8004 289.5493 0025588  99.1080 261.3006 14.43812830494570
Source of the keplerian elements: AFSPC